Regional Weather Roundup
Issued by NWS

Home | Current Version | Previous Version | Text Only | Print | Product List | Glossary On
Versions: 1 2 3 4 5 6 7 8 9 10 11 12 13 14 15 16 17 18 19 20 21 22 23 24 25 26 27 28 29 30 31 32 33 34 35 36 37 38 39 40 41 42 43 44 45 46 47 48 49 50
081
ASUS43 KLMK 231802
RWRKY
KENTUCKY REGIONAL WEATHER ROUNDUP
NATIONAL WEATHER SERVICE LOUISVILLE KY
200 PM EDT SAT SEP 23 2017

NOTE "FAIR" INDICATES FEW OR NO CLOUDS BELOW 12,000 FEET
WITH NO SIGNIFICANT WEATHER AND/OR OBSTRUCTIONS TO VISIBILITY.

KYZ001>023-026-027-061>063-070>075-231900-
WESTERN AND SOUTH CENTRAL KENTUCKY

CITY           SKY/WX    TMP DP  RH WIND       PRES   REMARKS
PADUCAH        SUNNY     90  66  45 VRB5      30.04F HX  92
HENDERSON      SUNNY     88  64  44 NE8       30.07F
OWENSBORO      SUNNY     87  63  44 NE10      30.07F
HOPKINSVILLE   NOT AVBL
BOWLING GREEN  SUNNY     87  68  52 NE6       30.07F HX  90
GLASGOW        SUNNY     87  65  48 NE5       30.08F
$$

KYZ024-025-028>034-038-045-046-053-231900-
NORTH CENTRAL KENTUCKY

CITY           SKY/WX    TMP DP  RH WIND       PRES   REMARKS
LOUISVILLE/SDF MOSUNNY   88  65  46 CALM      30.08F HX  90
LOUISVILLE/LOU SUNNY     87  66  49 VRB3      30.09F
FORT KNOX      SUNNY     84  65  53 E6        30.08F
$$

KYZ035>037-039>044-047>052-055>060-089>105-231900-
NORTHEAST KENTUCKY

CITY           SKY/WX    TMP DP  RH WIND       PRES   REMARKS
LEXINGTON      SUNNY     86  63  45 NE8       30.11F
COVINGTON      MOSUNNY   87  65  47 NE10      30.12F
FRANKFORT      SUNNY     87  61  41 E8        30.10F
$$

KYZ054-064>069-076>088-106>120-231900-
SOUTHEAST KENTUCKY

CITY           SKY/WX    TMP DP  RH WIND       PRES   REMARKS
JACKSON        SUNNY     82  65  56 CALM      30.12F
LONDON         SUNNY     85  64  49 VRB6      30.11F
SOMERSET       NOT AVBL
MIDDLESBORO    MOSUNNY   85  66  53 CALM      30.09F
MONTICELLO     CLEAR     84  67  56 N10G17    30.11F
$$





USA.gov is the U.S. government's official web portal to all federal, state and local government web resources and services.